Regional Weather Roundup
Issued by NWS Goodland, KS

Home | Current Version | Previous Version | Text Only | Print | Product List | Glossary Off
Versions: 1 2 3 4 5 6 7 8 9 10 11 12 13 14 15 16 17 18 19 20 21 22 23 24 25 26 27 28 29 30 31 32 33 34 35 36 37 38 39 40 41 42 43 44 45 46 47 48 49 50

000
ASUS43 KGLD 080859
RWRGLD

GOODLAND FORECAST AREA HOURLY WEATHER ROUNDUP
NATIONAL WEATHER SERVICE GOODLAND KS
200 AM MST MON FEB 08 2016

...OFFICIAL OBSERVATIONS...

CITY           SKY/WX    TMP DP  RH WIND       PRES   REMARKS
GOODLAND KS    CLEAR     25  10  53 NW24G31   30.31S WCI   9
HILL CITY KS   CLEAR     27  16  63 W16G26    30.26S WCI  15
IMPERIAL NEB   CLEAR     26  12  55 NW22G30   30.29R WCI  12
MCCOOK NEB     CLEAR     24  14  65 NW16G26   30.26R WCI  11
AKRON CO       CLOUDY    21  11  65 NW21      30.34S WCI   5
BURLINGTON CO  CLEAR     24  12  60 NW25      30.33F WCI   8
LIMON CO       CLOUDY    15   8  73 SW8       30.36S
$$

...UNOFFICIAL OBSERVATIONS...

CITY           SKY/WX    TMP DP  RH WIND       PRES   REMARKS
COLBY KS       CLEAR     27  18  69 NW23      30.30S WCI  12
GOVE KS          N/A     29  32 100 MISG        N/A
LENORA KS        N/A     24  32 100 MISG        N/A
NORTON KS      CLEAR     25  14  63 W16       30.23S WCI  12
KIT CARSON CO    N/A     15   9  76 MISG        N/A
YUMA CO          N/A     27  13  54 N18G25      N/A  WCI  14
$$



USA.gov is the U.S. government's official web portal to all federal, state and local government web resources and services.